{"data":{"norad_id":45235,"epoch":"2026-09-19T11:30:26.469792Z","epoch_age_seconds":102580,"freshness":"FRESH","line1":"1 45235U 20012BK  26262.47947303  .00044226  00000+0  96850-3 0  9997","line2":"2 45235  53.1500 211.2159 0003675 114.6194 245.5196 15.43697377364752","mean_motion":15.43697377,"eccentricity":0.0003675,"inclination_deg":53.15,"raan_deg":211.2159,"arg_perigee_deg":114.6194,"mean_anomaly_deg":245.5196,"bstar":0.0009685,"rev_number":36475,"period_min":93.282532020523,"perigee_km":432.70435885348,"apogee_km":437.71216762196,"semimajor_km":6813.3452632377,"source":"CELESTRAK","updated_at":"2026-09-20T09:00:38.229388Z"}}